Location: Balsareny
(41.8670°N, 1.8830°E)
Time: 14:30:32
(UTC+02:00)

Envisat - Visible Passes

Search period start: 20 April 2019 00:00
Search period end: 30 April 2019 00:00
Orbit: 764 x 766 km, 98.2° (Epoch: 19 April)

Date Brightness Start Highest point End Pass type
(mag) Time Alt. Az. Time Alt. Az. Time Alt. Az.
20 Apr 4.6 21:02:37 10° SSW 21:07:20 38° W 21:12:04 10° NNW visible
22 Apr 5.5 21:29:08 10° SW 21:33:02 22° W 21:36:58 10° NW visible
24 Apr 6.0 21:56:46 10° WSW 21:58:51 12° W 22:00:57 10° WNW visible
25 Apr 5.2 21:17:24 10° SSW 21:21:43 28° W 21:26:04 10° NW visible
27 Apr 5.8 21:44:25 10° SW 21:47:29 16° W 21:50:34 10° NW visible
